Simultaneous Nadir Overpasses (SNOs) Predictions

Prediction of SNOs between METOP-B and NOAA-19 Satellite Orbit:

Table of predicted SNOs for the next 14.0 days since TLE Epoch: 1/23/2015
Index Date (METOP-B) Time (METOP-B) Lat,Lon (METOP-B) SZA (METOP-B ) Date (NOAA-19) Time (NOAA-19) Lat,Lon (NOAA-19) SZA (NOAA-19 ) Distance(km) Time Diff (sec)
1 01/26/2015 19:20:07 74.85,-112.83 93.49 01/26/2015 19:18:56 74.86,-114.52 93.56 49.06 71
2 01/26/2015 20:10:55 -74.54, 53.63 86.82 01/26/2015 20:09:46 -74.56, 53.62 86.79 2.54 69
3 01/26/2015 21:01:35 74.54,-139.01 93.18 01/26/2015 21:00:52 74.53,-139.08 93.18 2.53 43
4 01/26/2015 21:52:17 -74.52, 28.24 86.86 01/26/2015 21:51:48 -74.51, 28.24 86.86 0.66 29
5 01/26/2015 22:42:58 74.48,-164.53 93.10 01/26/2015 22:42:54 74.48,-164.46 93.11 2.28 4
6 01/26/2015 23:33:39 -74.50, 2.85 86.89 01/26/2015 23:33:51 -74.51, 2.73 86.88 3.77 12
7 01/27/2015 00:24:20 74.46, 170.07 93.07 01/27/2015 00:24:57 74.48, 170.03 93.09 3.16 37
8 01/27/2015 01:15:01 -74.48, -22.54 86.93 01/27/2015 01:15:53 -74.46, -22.65 86.95 3.59 52
9 01/27/2015 02:05:44 74.34, 144.43 92.94 01/27/2015 02:06:57 74.34, 144.91 92.92 14.41 73
10 02/06/2015 05:21:22 74.66, 96.35 90.39 02/06/2015 05:20:08 74.64, 95.95 90.40 11.86 74
11 02/06/2015 06:12:05 -74.58, -96.52 89.70 02/06/2015 06:11:02 -74.57, -96.59 89.69 2.28 63
12 02/06/2015 07:02:46 74.54, 70.70 90.26 02/06/2015 07:02:09 74.55, 70.70 90.27 0.88 37
13 02/06/2015 07:53:28 -74.51,-122.04 89.78 02/06/2015 07:53:04 -74.53,-121.97 89.77 2.55 24
14 02/06/2015 08:44:08 74.52, 45.30 90.22 02/06/2015 08:44:11 74.50, 45.32 90.20 2.25 3
15 02/06/2015 09:34:50 -74.49,-147.44 89.82 02/06/2015 09:35:06 -74.48,-147.36 89.84 2.80 16
16 02/06/2015 10:25:30 74.50, 19.91 90.18 02/06/2015 10:26:14 74.50, 19.81 90.18 2.97 44
17 02/06/2015 11:16:12 -74.47,-172.83 89.86 02/06/2015 11:17:09 -74.48,-172.87 89.86 1.46 57




NCC Satellite Simultaneous Nadir Overpasses (SNOs) Prediction Service
